Regional Weather Roundup
Issued by NWS

Home | Current Version | Previous Version | Text Only | Print | Product List | Glossary Off
Versions: 1 2 3 4 5 6 7 8 9 10 11 12 13 14 15 16 17 18 19 20 21 22 23 24 25 26 27 28 29 30 31 32 33 34 35 36 37 38 39 40 41 42 43 44 45 46 47

000
ASUS45 KBOU 211110
RWRCO

WEATHER ROUNDUP FOR COLORADO
NATIONAL WEATHER SERVICE DENVER/BOULDER CO
500 AM MDT SAT APR 21 2018

NOTE: "FAIR" INDICATES FEW OR NO CLOUDS BELOW 12000 FEET WITH NO
SIGNIFICANT WEATHER AND/OR OBSTRUCTIONS TO VISIBILITY.

COZ001>005-013-030-031-211200-
...NORTHWEST COLORADO...

CITY           SKY/WX    TMP DP  RH WIND       PRES   REMARKS
CRAIG          CLOUDY    38  32  79 CALM      30.12R
HAYDEN         CLOUDY    34  33  96 NW3       30.12R
MEEKER         CLOUDY    36  32  85 NW9       30.11R
RANGELY        CLOUDY    39  38  97 CALM      30.14S
RABBIT EARS PA CLOUDY    23  21  93 N6        30.10S WCI  16
STEAMBOAT SPGS CLOUDY    32  32 100 CALM      30.10R VSB 1/2
WALDEN         FAIR      27  23  86 N12       30.09F WCI  16
$$

COZ006>008-011-211200-
...WEST CENTRAL VALLEYS...

CITY           SKY/WX    TMP DP  RH WIND       PRES   REMARKS
GRAND JUNCTION CLOUDY    41  40  96 W3        30.11R
MONTROSE       LGT RAIN  36  35  96 S7        30.13R
EAGLE          CLOUDY    32  30  93 S5        30.13R FOG     WCI  27
RIFLE          CLOUDY    36  35  96 CALM      30.10S
DELTA          RAIN      39  37  91 CALM      30.11S
NUCLA          DRIZZLE   36  34  93 SE5       30.15R
$$

COZ017>023-064>068-211200-
...SOUTHWEST COLORADO...

CITY           SKY/WX    TMP DP  RH WIND       PRES   REMARKS
DURANGO        FAIR      32  23  69 N3        30.05R
CORTEZ         CLOUDY    42  35  76 NW10      30.09F
PAGOSA SPRINGS CLOUDY    32  23  69 CALM      30.07S
TELLURIDE      SNOW      28  28 100 W3        30.12R VSB 1/4
WOLF CREEK PAS CLOUDY    18  18 100 NW5       30.12S FOG     WCI  11
$$

COZ009-010-012-014-032>034-037-058>063-211200-
...CENTRAL COLORADO...

CITY           SKY/WX    TMP DP  RH WIND       PRES   REMARKS
ASPEN          LGT SNOW  30  29  96 CALM      30.06F FOG
BUENA VISTA    FAIR      30  27  87 N7        30.04R WCI  23
COPPER MTN     NOT AVBL
BERTHOUD PASS  CLOUDY    14   5  67 NW7       30.08S WCI   4
COTTONWOOD PAS FAIR      32  25  74 NW7       30.04S WCI  26
GUNNISON       MIX PCPN  31  30  96 CALM      30.07S
GRANBY         FAIR      26  26  97 CALM      30.07F
KREMMLING      MOCLDY    36  30  80 NW5       30.08F
LEADVILLE      CLOUDY    22  20  92 N9        30.06R WCI  12
MONARCH PASS     N/A     18  16  93 W6        30.18R WCI   9
SALIDA         CLOUDY    32  28  84 CALM      30.13R
SUNLIGHT       SNOW      23  21  93 W9        30.13F VSB 1/4 WCI  13
WILKERSON PASS SNOW     N/A N/A N/A E6        30.08R VSB 1/4
$$

COZ069>075-211200-
...SAN LUIS VALLEY/SANGRE DE CRISTO MOUNTAINS...

CITY           SKY/WX    TMP DP  RH WIND       PRES   REMARKS
ALAMOSA        CLOUDY    31  28  89 N3        30.03R
DEL NORTE      CLOUDY    27  22  82 CALM      30.05R
LA VETA PASS   LGT SNOW  23  21  93 SW12      30.14S VSB 3/4 WCI  12
SAGUACHE       NOT AVBL
$$

COZ035-036-038>040-211200-
...NORTHERN COLORADO FRONT RANGE...

CITY           SKY/WX    TMP DP  RH WIND       PRES   REMARKS
DENVER INTL AP LGT SNOW  32  32 100 N6        30.11R VSB 3/4 WCI  26
AURORA         LGT SNOW  31  31 100 NW8       30.11R FOG     WCI  24
FRONT RANGE AP LGT SNOW  34  33  97 NE5       30.10S WCI  30
ERIE MUNI ARPT LGT SNOW  33  33  99 N8        30.18F WCI  26
BOULDER MUN AP CLOUDY    34  34 100 N10       30.13S WCI  26
CENTENNIAL     LGT SNOW  32  32 100 NW10      30.09S FOG     WCI  24
BROOMFIELD     LGT SNOW  32  32 100 N8        30.12S WCI  25
FORT COLLINS   LGT RAIN  33  32  96 N5        30.15S WCI  29
LONGMONT       MIX PCPN  36  34  92 N7        30.16S
$$

COZ041-046-047-076>085-087-088-211200-
...PIKES PEAK/PALMER DIVIDE AND SOUTHERN FOOTHILLS...

CITY           SKY/WX    TMP DP  RH WIND       PRES   REMARKS
COLO. SPRINGS  CLOUDY    33  32  96 NW9       30.08R WCI  25
A. F. ACADEMY  FLURRIES  31  31  99 N15       30.07S WCI  20
SCHRIEVER AFB  NOT AVBL
CHEYENNE MTN   LGT SNOW  29  29 100 N10       30.01R VSB 3/4 WCI  20
ELLICOTT       CLOUDY   N/A N/A N/A E13       30.05S
FALCON         FOG       32  32 100 N5        30.08S VSB 1   WCI  27
FORT CARSON    FLURRIES  34  32  93 N12       30.07R WCI  25
LIMON          CLOUDY    31  31 100 E7        30.09S WCI  24
MONUMENT HILL  LGT SNOW  28  28 100 NW12      30.09R WCI  18
CANON CITY     CLOUDY    34  34 100 W6        30.08R WCI  29
WALSENBURG     NOT AVBL
TRINIDAD       CLOUDY    35  32  88 NW5       30.05R WCI  31
$$

COZ042>045-048>051-090-091-211200-
...NORTHEAST COLORADO...

CITY           SKY/WX    TMP DP  RH WIND       PRES   REMARKS
GREELEY ARPT   FLURRIES  34  34 100 NE6       30.15S WCI  29
AKRON          LGT SNOW  32  32 100 E8        30.12S VSB 1   WCI  25
BURLINGTON     CLOUDY    36  35  96 E9        30.11F
WRAY           LGT SNOW  34  34 100 SE8       30.17R WCI  27
YUMA           LGT SNOW  32  32 100 E7        30.14S WCI  26
STERLING       NOT AVBL
HOLYOKE        RAIN      37  36  93 SE14      30.18S
FORT MORGAN    LGT SNOW  32  32  99 E9        30.14R WCI  24
$$

COZ086-089-092>099-211200-
...SOUTHEAST COLORADO...

CITY           SKY/WX    TMP DP  RH WIND       PRES   REMARKS
PUEBLO         CLOUDY    41  36  82 NE6       30.06R
LA JUNTA       LGT RAIN  42  40  92 E8        30.05S FOG
LAMAR          CLOUDY    41  39  93 E8        30.06R FOG
SPRINGFIELD      N/A     38  38 100 SE8       30.03S
$$




USA.gov is the U.S. government's official web portal to all federal, state and local government web resources and services.